GLO1146 SBGR-SBMG

Flight info

Callsign GLO1146
Flight time 1h 13m
Altitude 32000
Route ASETA UZ152 UKLEN
Aircraft B738/M-SDE2E3FGHIRWXY/LB1

Departure

Time 2026-05-04 00:08
Airport São Paulo/Guarulhos–Governor André Franco Montoro International Airport (SBGR)

Arrival

Time 2026-05-04 01:21
Airport Regional de Maringá - Sílvio Name Júnior Airport (SBMG)
Time Latitude Longitude Altitude Speed Heading
2026-05-03 23:45 -23.42860 -46.48230 2467 ft 0 kts 288°
2026-05-03 23:57 -23.42860 -46.48229 2467 ft 2 kts 288°
2026-05-03 23:57 -23.42866 -46.48209 2467 ft 3 kts 288°
2026-05-03 23:58 -23.42872 -46.48190 2467 ft 3 kts 283°
2026-05-03 23:58 -23.42872 -46.48169 2467 ft 3 kts 244°
2026-05-03 23:58 -23.42860 -46.48153 2471 ft 3 kts 206°
2026-05-03 23:58 -23.42854 -46.48150 2470 ft 0 kts 198°
2026-05-04 00:01 -23.42848 -46.48148 2470 ft 0 kts 180°
2026-05-04 00:03 -23.42857 -46.48147 2467 ft 6 kts 178°
2026-05-04 00:03 -23.42930 -46.48140 2473 ft 12 kts 175°
2026-05-04 00:03 -23.43015 -46.48134 2470 ft 12 kts 186°
2026-05-04 00:03 -23.43047 -46.48207 2467 ft 12 kts 262°
2026-05-04 00:04 -23.43057 -46.48292 2469 ft 12 kts 264°
2026-05-04 00:04 -23.43063 -46.48386 2467 ft 13 kts 264°
2026-05-04 00:04 -23.43107 -46.48425 2467 ft 8 kts 178°
2026-05-04 00:04 -23.43167 -46.48408 2471 ft 9 kts 163°
2026-05-04 00:05 -23.43231 -46.48387 2470 ft 10 kts 162°
2026-05-04 00:05 -23.43294 -46.48367 2469 ft 9 kts 165°
2026-05-04 00:05 -23.43303 -46.48364 2471 ft 0 kts 166°
2026-05-04 00:06 -23.43312 -46.48362 2470 ft 5 kts 166°
2026-05-04 00:06 -23.43364 -46.48346 2469 ft 10 kts 164°
2026-05-04 00:07 -23.43417 -46.48302 2470 ft 10 kts 89°
2026-05-04 00:07 -23.43373 -46.48131 2469 ft 52 kts 74°
2026-05-04 00:07 -23.43205 -46.47509 2468 ft 117 kts 73°
2026-05-04 00:07 -23.42940 -46.46471 2557 ft 161 kts 75°
2026-05-04 00:08 -23.42592 -46.45267 3151 ft 172 kts 72°
2026-05-04 00:08 -23.42158 -46.44028 3911 ft 175 kts 69°
2026-05-04 00:08 -23.41721 -46.42702 4266 ft 200 kts 76°
2026-05-04 00:08 -23.41315 -46.41166 4466 ft 224 kts 75°
2026-05-04 00:09 -23.40846 -46.39447 4720 ft 250 kts 75°
2026-05-04 00:09 -23.40368 -46.37591 5415 ft 259 kts 83°
2026-05-04 00:09 -23.40352 -46.35617 6221 ft 264 kts 91°
2026-05-04 00:09 -23.40633 -46.33631 6992 ft 271 kts 109°
2026-05-04 00:10 -23.41342 -46.31704 7768 ft 277 kts 110°
2026-05-04 00:10 -23.42041 -46.29714 8457 ft 286 kts 109°
2026-05-04 00:10 -23.42778 -46.27664 9143 ft 295 kts 117°
2026-05-04 00:10 -23.44110 -46.25977 9968 ft 297 kts 146°
2026-05-04 00:11 -23.46016 -46.25113 10574 ft 303 kts 174°
2026-05-04 00:11 -23.48179 -46.25218 10811 ft 323 kts 192°
2026-05-04 00:11 -23.50465 -46.25712 11004 ft 347 kts 193°
2026-05-04 00:11 -23.52874 -46.26376 11140 ft 367 kts 204°
2026-05-04 00:12 -23.55016 -46.27946 11416 ft 378 kts 227°
2026-05-04 00:12 -23.56459 -46.30329 12055 ft 378 kts 247°
2026-05-04 00:12 -23.57171 -46.33088 12686 ft 380 kts 258°
2026-05-04 00:12 -23.57695 -46.35934 13241 ft 385 kts 259°
2026-05-04 00:13 -23.58212 -46.38808 13837 ft 388 kts 259°
2026-05-04 00:13 -23.58749 -46.41700 14402 ft 391 kts 258°
2026-05-04 00:13 -23.59298 -46.44561 14975 ft 391 kts 258°
2026-05-04 00:13 -23.59868 -46.47459 15593 ft 390 kts 258°
2026-05-04 00:14 -23.60442 -46.50354 16175 ft 391 kts 258°
2026-05-04 00:14 -23.61002 -46.53258 16718 ft 392 kts 259°
2026-05-04 00:14 -23.61440 -46.56196 17249 ft 394 kts 261°
2026-05-04 00:14 -23.61845 -46.59158 17778 ft 395 kts 261°
2026-05-04 00:15 -23.62263 -46.62123 18280 ft 397 kts 261°
2026-05-04 00:15 -23.62785 -46.65077 18731 ft 399 kts 253°
2026-05-04 00:15 -23.63991 -46.67797 19174 ft 401 kts 239°
2026-05-04 00:15 -23.65531 -46.70332 19678 ft 400 kts 238°
2026-05-04 00:16 -23.67049 -46.72871 20140 ft 400 kts 239°
2026-05-04 00:16 -23.68307 -46.75560 20532 ft 399 kts 253°
2026-05-04 00:16 -23.68734 -46.78548 20947 ft 401 kts 268°
2026-05-04 00:16 -23.68458 -46.81575 21377 ft 404 kts 279°
2026-05-04 00:17 -23.67564 -46.84493 21766 ft 411 kts 293°
2026-05-04 00:17 -23.66040 -46.87160 22190 ft 415 kts 299°
2026-05-04 00:17 -23.64379 -46.89750 22482 ft 419 kts 300°
2026-05-04 00:17 -23.62679 -46.92348 22770 ft 422 kts 300°
2026-05-04 00:18 -23.60973 -46.94964 23133 ft 423 kts 300°
2026-05-04 00:18 -23.59281 -46.97586 23516 ft 423 kts 300°
2026-05-04 00:18 -23.57597 -47.00220 23843 ft 424 kts 299°
2026-05-04 00:18 -23.55912 -47.02870 24100 ft 425 kts 299°
2026-05-04 00:19 -23.54228 -47.05523 24389 ft 426 kts 299°
2026-05-04 00:19 -23.53111 -47.07283 24574 ft 426 kts 300°
2026-05-04 00:19 -23.51422 -47.09939 24858 ft 427 kts 299°
2026-05-04 00:19 -23.49727 -47.12605 25114 ft 428 kts 300°
2026-05-04 00:20 -23.47453 -47.16181 25424 ft 430 kts 300°
2026-05-04 00:20 -23.46326 -47.17952 25589 ft 430 kts 300°
2026-05-04 00:20 -23.44618 -47.20634 25859 ft 431 kts 300°
2026-05-04 00:20 -23.42908 -47.23318 26095 ft 432 kts 300°
2026-05-04 00:21 -23.41191 -47.26011 26335 ft 433 kts 300°
2026-05-04 00:21 -23.39475 -47.28703 26592 ft 433 kts 300°
2026-05-04 00:21 -23.37757 -47.31397 26837 ft 434 kts 300°
2026-05-04 00:21 -23.36033 -47.34099 27063 ft 435 kts 300°
2026-05-04 00:22 -23.33746 -47.37680 27300 ft 436 kts 300°
2026-05-04 00:22 -23.32574 -47.39514 27410 ft 438 kts 300°
2026-05-04 00:22 -23.30830 -47.42242 27615 ft 438 kts 300°
2026-05-04 00:22 -23.29093 -47.44956 27921 ft 436 kts 300°
2026-05-04 00:23 -23.27366 -47.47653 28287 ft 433 kts 300°
2026-05-04 00:23 -23.25669 -47.50301 28660 ft 431 kts 300°
2026-05-04 00:23 -23.23962 -47.52967 28991 ft 429 kts 300°
2026-05-04 00:23 -23.22257 -47.55628 29319 ft 428 kts 300°
2026-05-04 00:24 -23.20569 -47.58277 29677 ft 425 kts 298°
2026-05-04 00:24 -23.19347 -47.61146 30047 ft 415 kts 283°
2026-05-04 00:24 -23.18800 -47.64200 30353 ft 412 kts 275°
2026-05-04 00:24 -23.18753 -47.67307 30521 ft 413 kts 265°
2026-05-04 00:25 -23.19298 -47.70381 30754 ft 415 kts 258°
2026-05-04 00:25 -23.20024 -47.73405 31073 ft 413 kts 257°
2026-05-04 00:25 -23.20775 -47.76411 31397 ft 411 kts 257°
2026-05-04 00:25 -23.21517 -47.79404 31694 ft 410 kts 257°
2026-05-04 00:26 -23.22243 -47.82391 32022 ft 408 kts 257°
2026-05-04 00:26 -23.22954 -47.85366 32379 ft 405 kts 257°
2026-05-04 00:26 -23.23652 -47.88326 32688 ft 404 kts 257°
2026-05-04 00:26 -23.24345 -47.91289 32962 ft 404 kts 257°
2026-05-04 00:27 -23.25035 -47.94245 33250 ft 403 kts 257°
2026-05-04 00:27 -23.25722 -47.97195 33564 ft 402 kts 257°
2026-05-04 00:27 -23.26406 -48.00137 33872 ft 400 kts 257°
2026-05-04 00:27 -23.27087 -48.03064 34198 ft 399 kts 257°
2026-05-04 00:28 -23.27766 -48.05979 34472 ft 397 kts 257°
2026-05-04 00:28 -23.28444 -48.08890 34734 ft 396 kts 257°
2026-05-04 00:28 -23.29017 -48.11812 35006 ft 394 kts 261°
2026-05-04 00:28 -23.29458 -48.14741 35272 ft 392 kts 262°
2026-05-04 00:29 -23.29855 -48.17668 35528 ft 391 kts 262°
2026-05-04 00:29 -23.30248 -48.20589 35785 ft 389 kts 262°
2026-05-04 00:29 -23.30647 -48.23496 36042 ft 388 kts 262°
2026-05-04 00:29 -23.31050 -48.26357 36307 ft 386 kts 262°
2026-05-04 00:30 -23.31466 -48.29275 36563 ft 385 kts 262°
2026-05-04 00:30 -23.31878 -48.32146 36809 ft 384 kts 262°
2026-05-04 00:30 -23.32289 -48.35010 37055 ft 382 kts 261°
2026-05-04 00:30 -23.32700 -48.37862 37265 ft 382 kts 261°
2026-05-04 00:31 -23.33112 -48.40719 37419 ft 382 kts 261°
2026-05-04 00:31 -23.33475 -48.43587 37533 ft 383 kts 263°
2026-05-04 00:31 -23.33743 -48.46432 37712 ft 382 kts 264°
2026-05-04 00:31 -23.33977 -48.49306 37929 ft 381 kts 265°
2026-05-04 00:32 -23.34202 -48.52175 38101 ft 380 kts 265°
2026-05-04 00:32 -23.34429 -48.55039 38200 ft 381 kts 265°
2026-05-04 00:32 -23.34896 -48.60789 38222 ft 382 kts 264°
2026-05-04 00:33 -23.35617 -48.69408 38217 ft 381 kts 264°
2026-05-04 00:34 -23.36099 -48.75137 38224 ft 380 kts 264°
2026-05-04 00:34 -23.36579 -48.80861 38223 ft 379 kts 264°
2026-05-04 00:35 -23.37057 -48.86578 38208 ft 379 kts 264°
2026-05-04 00:35 -23.37533 -48.92294 38209 ft 379 kts 264°
2026-05-04 00:36 -23.38005 -48.98003 38200 ft 379 kts 264°
2026-05-04 00:36 -23.38477 -49.03721 38205 ft 379 kts 264°
2026-05-04 00:37 -23.38947 -49.09445 38219 ft 380 kts 264°
2026-05-04 00:37 -23.39412 -49.15136 38207 ft 380 kts 264°
2026-05-04 00:38 -23.39880 -49.20898 38210 ft 380 kts 264°
2026-05-04 00:38 -23.40342 -49.26596 38203 ft 380 kts 264°
2026-05-04 00:39 -23.40804 -49.32324 38223 ft 380 kts 264°
2026-05-04 00:39 -23.41263 -49.38047 38195 ft 379 kts 265°
2026-05-04 00:40 -23.41719 -49.43761 38195 ft 379 kts 265°
2026-05-04 00:40 -23.42173 -49.49470 38200 ft 378 kts 265°
2026-05-04 00:41 -23.42624 -49.55172 38208 ft 378 kts 265°
2026-05-04 00:41 -23.43074 -49.60882 38195 ft 378 kts 265°
2026-05-04 00:42 -23.43521 -49.66579 38193 ft 378 kts 265°
2026-05-04 00:42 -23.43965 -49.72278 38197 ft 378 kts 265°
2026-05-04 00:43 -23.44408 -49.77976 38186 ft 378 kts 265°
2026-05-04 00:43 -23.44845 -49.83634 38191 ft 378 kts 265°
2026-05-04 00:44 -23.45284 -49.89336 38188 ft 378 kts 265°
2026-05-04 00:44 -23.45720 -49.95038 38190 ft 378 kts 265°
2026-05-04 00:45 -23.46155 -50.00742 38182 ft 378 kts 265°
2026-05-04 00:45 -23.46588 -50.06452 38189 ft 379 kts 265°
2026-05-04 00:46 -23.47020 -50.12180 38189 ft 380 kts 265°
2026-05-04 00:46 -23.47451 -50.17917 38187 ft 380 kts 265°
2026-05-04 00:47 -23.47880 -50.23662 38183 ft 381 kts 264°
2026-05-04 00:47 -23.48307 -50.29411 38183 ft 381 kts 265°
2026-05-04 00:48 -23.48732 -50.35160 38185 ft 381 kts 265°
2026-05-04 00:48 -23.49157 -50.40931 37744 ft 387 kts 265°
2026-05-04 00:48 -23.49369 -50.43829 37284 ft 381 kts 265°
2026-05-04 00:49 -23.49580 -50.46708 36681 ft 380 kts 264°
2026-05-04 00:49 -23.49788 -50.49574 36066 ft 380 kts 264°
2026-05-04 00:49 -23.49997 -50.52446 35402 ft 381 kts 264°
2026-05-04 00:49 -23.50207 -50.55331 34706 ft 382 kts 264°
2026-05-04 00:50 -23.50416 -50.58223 33988 ft 385 kts 264°
2026-05-04 00:50 -23.50628 -50.61163 33206 ft 394 kts 264°
2026-05-04 00:50 -23.50844 -50.64161 32440 ft 401 kts 265°
2026-05-04 00:50 -23.51061 -50.67199 31673 ft 402 kts 265°
2026-05-04 00:51 -23.51275 -50.70197 30894 ft 403 kts 265°
2026-05-04 00:51 -23.51491 -50.73246 30101 ft 405 kts 265°
2026-05-04 00:51 -23.51706 -50.76281 29474 ft 399 kts 265°
2026-05-04 00:51 -23.51919 -50.79285 28826 ft 395 kts 265°
2026-05-04 00:52 -23.52128 -50.82251 28242 ft 391 kts 265°
2026-05-04 00:52 -23.52335 -50.85185 27661 ft 385 kts 265°
2026-05-04 00:52 -23.52539 -50.88085 27110 ft 384 kts 265°
2026-05-04 00:52 -23.52743 -50.91014 26539 ft 391 kts 264°
2026-05-04 00:53 -23.52950 -50.93962 26001 ft 388 kts 264°
2026-05-04 00:53 -23.53153 -50.96869 25455 ft 383 kts 264°
2026-05-04 00:53 -23.53355 -50.99750 24912 ft 379 kts 264°
2026-05-04 00:53 -23.53554 -51.02613 24344 ft 378 kts 264°
2026-05-04 00:54 -23.53751 -51.05461 23788 ft 376 kts 264°
2026-05-04 00:54 -23.53947 -51.08292 23128 ft 375 kts 264°
2026-05-04 00:54 -23.54144 -51.11146 22563 ft 380 kts 265°
2026-05-04 00:54 -23.54341 -51.14004 21977 ft 377 kts 265°
2026-05-04 00:55 -23.54536 -51.16842 21401 ft 374 kts 265°
2026-05-04 00:55 -23.54729 -51.19667 20849 ft 373 kts 265°
2026-05-04 00:55 -23.54921 -51.22478 20307 ft 371 kts 265°
2026-05-04 00:55 -23.55112 -51.25287 19756 ft 374 kts 265°
2026-05-04 00:56 -23.55305 -51.28125 19186 ft 377 kts 266°
2026-05-04 00:56 -23.55497 -51.30973 18641 ft 376 kts 266°
2026-05-04 00:56 -23.55687 -51.33811 18044 ft 375 kts 266°
2026-05-04 00:56 -23.55877 -51.36634 17473 ft 372 kts 266°
2026-05-04 00:57 -23.56065 -51.39429 16945 ft 368 kts 266°
2026-05-04 00:57 -23.56250 -51.42194 16428 ft 364 kts 266°
2026-05-04 00:57 -23.56433 -51.44935 15915 ft 361 kts 266°
2026-05-04 00:57 -23.56614 -51.47650 15412 ft 358 kts 266°
2026-05-04 00:58 -23.56791 -51.50315 14916 ft 356 kts 266°
2026-05-04 00:58 -23.56968 -51.52994 14408 ft 353 kts 267°
2026-05-04 00:58 -23.57144 -51.55659 13893 ft 352 kts 267°
2026-05-04 00:58 -23.57319 -51.58313 13361 ft 350 kts 266°
2026-05-04 00:59 -23.57492 -51.60947 12843 ft 347 kts 266°
2026-05-04 00:59 -23.57663 -51.63562 12338 ft 345 kts 266°
2026-05-04 00:59 -23.57832 -51.66162 11853 ft 343 kts 266°
2026-05-04 00:59 -23.58001 -51.68749 11373 ft 342 kts 266°
2026-05-04 01:00 -23.58168 -51.71318 11087 ft 334 kts 266°
2026-05-04 01:00 -23.58330 -51.73807 10909 ft 325 kts 266°
2026-05-04 01:00 -23.58488 -51.76238 10775 ft 317 kts 266°
2026-05-04 01:00 -23.58641 -51.78590 10640 ft 306 kts 266°
2026-05-04 01:01 -23.58789 -51.80866 10510 ft 296 kts 266°
2026-05-04 01:01 -23.58932 -51.83073 10378 ft 287 kts 266°
2026-05-04 01:01 -23.59070 -51.85216 10259 ft 279 kts 266°
2026-05-04 01:01 -23.59203 -51.87294 10143 ft 271 kts 266°
2026-05-04 01:02 -23.59333 -51.89329 9894 ft 269 kts 266°
2026-05-04 01:02 -23.59462 -51.91353 9617 ft 267 kts 266°
2026-05-04 01:02 -23.59590 -51.93368 9330 ft 266 kts 266°
2026-05-04 01:02 -23.59717 -51.95371 9062 ft 264 kts 267°
2026-05-04 01:03 -23.59842 -51.97364 8799 ft 263 kts 267°
2026-05-04 01:03 -23.59967 -51.99358 8522 ft 263 kts 268°
2026-05-04 01:03 -23.60092 -52.01346 8230 ft 263 kts 268°
2026-05-04 01:03 -23.60216 -52.03334 7943 ft 262 kts 267°
2026-05-04 01:04 -23.60340 -52.05319 7657 ft 262 kts 267°
2026-05-04 01:04 -23.60464 -52.07315 7390 ft 265 kts 267°
2026-05-04 01:04 -23.60588 -52.09328 7113 ft 266 kts 267°
2026-05-04 01:04 -23.60714 -52.11342 6810 ft 266 kts 267°
2026-05-04 01:05 -23.60840 -52.13359 6536 ft 266 kts 268°
2026-05-04 01:05 -23.60965 -52.15367 6240 ft 265 kts 267°
2026-05-04 01:05 -23.61091 -52.17374 5955 ft 265 kts 268°
2026-05-04 01:05 -23.60974 -52.19338 5770 ft 255 kts 291°
2026-05-04 01:06 -23.60062 -52.20906 5640 ft 241 kts 320°
2026-05-04 01:06 -23.58660 -52.21820 5503 ft 231 kts 341°
2026-05-04 01:06 -23.57117 -52.22110 5381 ft 223 kts
2026-05-04 01:06 -23.55594 -52.21922 5298 ft 219 kts
2026-05-04 01:07 -23.54113 -52.21698 5198 ft 215 kts
2026-05-04 01:07 -23.52641 -52.21406 4945 ft 216 kts 20°
2026-05-04 01:07 -23.51530 -52.20380 4762 ft 211 kts 61°
2026-05-04 01:07 -23.51047 -52.18894 4544 ft 205 kts 71°
2026-05-04 01:08 -23.50720 -52.17411 4344 ft 197 kts 75°
2026-05-04 01:08 -23.50446 -52.15984 4156 ft 188 kts 75°
2026-05-04 01:08 -23.50183 -52.14636 3924 ft 175 kts 74°
2026-05-04 01:08 -23.49935 -52.13395 3737 ft 160 kts 75°
2026-05-04 01:09 -23.49779 -52.12612 3537 ft 153 kts 75°
2026-05-04 01:09 -23.49503 -52.11224 3316 ft 131 kts 73°
2026-05-04 01:09 -23.49374 -52.10587 3246 ft 129 kts 74°
2026-05-04 01:09 -23.49185 -52.09626 3026 ft 129 kts 75°
2026-05-04 01:10 -23.48997 -52.08669 2858 ft 128 kts 75°
2026-05-04 01:10 -23.48815 -52.07749 2710 ft 124 kts 76°
2026-05-04 01:10 -23.48628 -52.06803 2509 ft 128 kts 76°
2026-05-04 01:10 -23.48440 -52.05854 2352 ft 131 kts 76°
2026-05-04 01:11 -23.48249 -52.04882 2169 ft 135 kts 75°
2026-05-04 01:11 -23.48049 -52.03867 2016 ft 134 kts 76°
2026-05-04 01:11 -23.47849 -52.02886 1859 ft 135 kts 78°
2026-05-04 01:11 -23.47616 -52.01813 2375 ft 152 kts 77°
2026-05-04 01:12 -23.47320 -52.00592 2975 ft 181 kts 74°
2026-05-04 01:12 -23.47226 -51.99227 3941 ft 187 kts 102°
2026-05-04 01:12 -23.47968 -51.98026 4699 ft 203 kts 134°
2026-05-04 01:12 -23.49291 -51.97353 4970 ft 221 kts 172°
2026-05-04 01:13 -23.50818 -51.97560 4967 ft 222 kts 208°
2026-05-04 01:13 -23.51955 -51.98624 5002 ft 217 kts 243°
2026-05-04 01:13 -23.52504 -52.00140 5012 ft 215 kts 257°
2026-05-04 01:13 -23.52905 -52.01714 4993 ft 215 kts 258°
2026-05-04 01:14 -23.53303 -52.03284 5004 ft 215 kts 258°
2026-05-04 01:14 -23.53686 -52.04847 4904 ft 212 kts 258°
2026-05-04 01:14 -23.54046 -52.06387 4638 ft 210 kts 257°
2026-05-04 01:14 -23.54382 -52.07942 4196 ft 216 kts 258°
2026-05-04 01:15 -23.54717 -52.09544 3931 ft 215 kts 258°
2026-05-04 01:15 -23.55042 -52.11091 3827 ft 206 kts 258°
2026-05-04 01:15 -23.55349 -52.12583 3654 ft 200 kts 259°
2026-05-04 01:15 -23.55640 -52.14061 3432 ft 195 kts 259°
2026-05-04 01:16 -23.55607 -52.15475 3445 ft 185 kts 298°
2026-05-04 01:16 -23.54790 -52.16490 3517 ft 178 kts 339°
2026-05-04 01:16 -23.53644 -52.16662 3536 ft 162 kts 18°
2026-05-04 01:16 -23.52698 -52.16088 3527 ft 155 kts 50°
2026-05-04 01:17 -23.52068 -52.15167 3560 ft 153 kts 52°
2026-05-04 01:17 -23.51425 -52.14245 3527 ft 150 kts 52°
2026-05-04 01:17 -23.50820 -52.13366 3518 ft 140 kts 52°
2026-05-04 01:17 -23.50258 -52.12550 3538 ft 134 kts 52°
2026-05-04 01:18 -23.49708 -52.11740 3401 ft 132 kts 55°
2026-05-04 01:18 -23.49423 -52.10812 3257 ft 129 kts 77°
2026-05-04 01:18 -23.49240 -52.09847 3065 ft 130 kts 74°
2026-05-04 01:18 -23.49043 -52.08883 2895 ft 130 kts 74°
2026-05-04 01:19 -23.48855 -52.07951 2722 ft 122 kts 76°
2026-05-04 01:19 -23.48666 -52.07017 2552 ft 133 kts 74°
2026-05-04 01:19 -23.48471 -52.06048 2392 ft 130 kts 75°
2026-05-04 01:19 -23.48277 -52.05085 2223 ft 127 kts 81°
2026-05-04 01:20 -23.48104 -52.04137 2066 ft 131 kts 79°
2026-05-04 01:20 -23.47911 -52.03168 1905 ft 130 kts 77°
2026-05-04 01:20 -23.47724 -52.02204 1812 ft 121 kts 77°
2026-05-04 01:20 -23.47581 -52.01460 1802 ft 71 kts 77°
2026-05-04 01:21 -23.47512 -52.01132 1802 ft 33 kts 78°
2026-05-04 01:21 -23.47467 -52.00902 1802 ft 30 kts 78°
2026-05-04 01:21 -23.47430 -52.00703 1801 ft 19 kts 81°
2026-05-04 01:21 -23.47485 -52.00641 1801 ft 8 kts 196°
2026-05-04 01:22 -23.47530 -52.00669 1799 ft 7 kts 213°
2026-05-04 01:22 -23.47574 -52.00704 1798 ft 10 kts 221°
2026-05-04 01:22 -23.47607 -52.00788 1799 ft 14 kts 257°
2026-05-04 01:22 -23.47625 -52.00890 1800 ft 14 kts 258°
2026-05-04 01:23 -23.47649 -52.01005 1798 ft 17 kts 251°
2026-05-04 01:23 -23.47727 -52.01096 1800 ft 16 kts 216°
2026-05-04 01:23 -23.47821 -52.01136 1800 ft 12 kts 172°
2026-05-04 01:23 -23.47882 -52.01124 1801 ft 3 kts 168°
2026-05-04 01:24 -23.47886 -52.01123 1799 ft 0 kts 169°